FW4000 Weather Reports


Display with metric or nautical units.
time (UTC)temp
F
wind
direction
speed
MPH
gust
MPH
rain 1hr
in
rain 24hr
in
rain mn
in
humidity
%
barometer
mb
20260506174614 58 360 0.0 2.0 0.00 0.38 0.16 72 1009.9
20260506173135 60 360 1.0 2.0 0.00 0.38 0.16 66 1009.7
20260506171619 60 360 1.0 2.0 0.00 0.38 0.16 67 1009.4
20260506170119 59 360 0.0 3.0 0.00 0.38 0.16 71 1009.5
20260506164502 59 360 2.0 4.0 0.00 0.39 0.16 72 1009.6
20260506163130 59 360 2.0 5.0 0.00 0.39 0.16 73 1009.6
20260506161630 59 360 2.0 3.0 0.00 0.39 0.16 68 1009.8
20260506160133 59 360 2.0 4.0 0.00 0.39 0.16 66 1009.7
20260506154516 59 360 0.0 3.0 0.00 0.41 0.16 64 1009.9
20260506153011 58 360 1.0 3.0 0.00 0.41 0.16 66 1010.2
20260506151511 58 360 1.0 3.0 0.00 0.41 0.16 65 1010.2
20260506150056 58 360 3.0 5.0 0.00 0.41 0.16 68 1010.3
20260506144605 57 360 3.0 8.0 0.00 0.41 0.16 68 1010.4
20260506143118 58 360 3.0 5.0 0.00 0.41 0.16 67 1010.5
20260506141607 57 360 3.0 6.0 0.00 0.41 0.16 66 1010.6
20260506140047 57 360 4.0 6.0 0.00 0.41 0.16 68 1010.7
20260506134520 56 360 3.0 5.0 0.00 0.43 0.16 70 1010.8
20260506133019 56 360 3.0 5.0 0.00 0.43 0.16 71 1011.1
20260506131519 56 360 2.0 4.0 0.00 0.43 0.16 72 1011.3
20260506130052 54 360 4.0 6.0 0.00 0.43 0.16 78 1011.3
20260506124528 54 360 6.0 9.0 0.00 1.06 0.16 78 1011.4
20260506123027 54 360 7.0 9.0 0.00 1.06 0.16 78 1011.3
20260506121553 54 360 6.0 8.0 0.00 1.06 0.16 80 1011.3
20260506114533 54 360 2.0 7.0 0.01 1.31 0.16 77 1011.4
20260506113054 53 360 2.0 6.0 0.05 1.31 0.16 75 1011.4
20260506111555 53 360 6.0 13.0 0.07 1.31 0.16 74 1011.6
20260506110032 53 360 8.0 19.0 0.12 1.31 0.16 74 1011.7
20260506104600 53 360 8.0 18.0 0.12 1.30 0.15 73 1011.7
20260506103052 53 360 10.0 21.0 0.08 1.26 0.11 75 1011.4
20260506101506 53 360 10.0 17.0 0.06 1.24 0.09 80 1011.1
20260506100013 53 360 9.0 13.0 0.01 1.19 0.04 81 1011.0
20260506094516 52 360 4.0 17.0 0.00 1.20 0.03 83 1010.7
20260506093009 53 360 7.0 16.0 0.02 1.20 0.03 83 1010.5
20260506091638 52 360 12.0 19.0 0.02 1.20 0.03 86 1010.3
20260506090130 52 360 13.0 24.0 0.02 1.20 0.03 88 1010.3
20260506084628 52 360 18.0 28.0 0.02 1.20 0.03 93 1009.9
20260506083004 52 360 1.0 4.0 0.00 1.18 0.02 94 1009.5
20260506081516 52 360 0.0 3.0 0.00 1.18 0.02 94 1009.4
20260506073002 51 360 1.0 3.0 0.01 1.18 0.02 94 1008.8
20260506071500 52 360 3.0 6.0 0.01 1.18 0.02 94 1008.6
20260506061601 52 360 2.0 5.0 0.01 1.17 0.01 94 1008.2
20260506060106 52 360 2.0 4.0 0.00 1.17 0.00 94 1008.0
20260506050135 53 360 3.0 6.0 0.00 1.17 0.00 93 1007.7
20260506044631 52 360 1.0 3.0 0.00 1.17 0.00 93 1007.6
20260506043122 52 360 1.0 3.0 0.00 1.17 0.00 92 1007.6
20260506041502 53 360 0.0 3.0 0.00 1.17 0.00 92 1007.5
20260506040033 53 360 1.0 5.0 0.00 1.17 0.00 93 1007.6
20260506034513 52 360 4.0 5.0 0.00 1.19 0.00 93 1007.5
20260506033020 52 360 1.0 4.0 0.00 1.19 0.00 93 1007.6
20260506030130 51 360 3.0 5.0 0.00 1.19 0.00 93 1007.7
20260506024503 52 360 4.0 8.0 0.00 1.19 0.00 92 1007.7
20260506023042 53 360 3.0 6.0 0.00 1.19 0.00 92 1007.8
20260506021601 53 360 2.0 4.0 0.00 1.19 0.00 93 1007.9
20260506020112 52 360 1.0 4.0 0.00 1.19 0.00 92 1008.0
20260506014627 52 360 2.0 4.0 0.00 1.20 0.00 92 1008.2
20260506013124 52 360 2.0 4.0 0.00 1.20 0.00 92 1008.3
20260506011624 53 360 2.0 5.0 0.00 1.20 0.00 92 1008.6
20260506010011 53 360 1.0 3.0 0.00 1.20 0.00 91 1008.7
20260506004520 54 360 1.0 2.0 0.00 1.20 0.00 91 1008.9
20260506003009 54 360 1.0 3.0 0.00 1.20 0.00 91 1009.1
20260506001624 54 360 0.0 2.0 0.00 1.20 0.00 91 1009.3
20260506000114 54 360 1.0 2.0 0.00 1.20 0.00 91 1009.6
20260505234608 55 360 1.0 4.0 0.00 1.20 0.00 90 1009.8
20260505233113 55 360 3.0 4.0 0.00 1.20 0.00 90 1010.0
20260505231606 55 360 1.0 5.0 0.00 1.20 0.00 88 1010.4
20260505230055 56 360 1.0 4.0 0.00 1.20 0.00 87 1010.5
20260505224551 56 360 2.0 6.0 0.02 1.20 0.00 86 1010.5
20260505223110 56 360 1.0 6.0 0.02 1.20 0.00 85 1010.5
20260505221610 56 360 2.0 4.0 0.02 1.20 0.00 86 1010.8
20260505220103 56 360 3.0 10.0 0.02 1.20 0.00 84 1011.0
20260505214617 56 360 2.0 6.0 0.00 1.19 1.19 88 1011.2
20260505213124 56 360 2.0 4.0 0.00 1.19 1.19 87 1011.2
20260505211635 56 360 2.0 5.0 0.09 1.19 1.19 87 1011.0
20260505210010 56 360 2.0 6.0 0.11 1.19 1.19 85 1010.9
20260505204546 57 360 0.0 7.0 0.14 1.19 1.19 83 1011.1
20260505203101 58 360 5.0 9.0 0.14 1.18 1.18 82 1011.0
20260505201621 58 360 5.0 12.0 0.06 1.10 1.10 81 1010.8
20260505200009 58 360 8.0 15.0 0.04 1.08 1.08 80 1010.7
20260505194516 58 360 10.0 13.0 0.01 1.05 1.05 84 1010.4
20260505193027 56 360 6.0 11.0 0.00 1.04 1.04 89 1009.9
20260505191559 57 360 2.0 5.0 0.00 1.04 1.04 89 1009.8
20260505190107 57 360 2.0 4.0 0.00 1.04 1.04 89 1009.3
20260505184615 56 360 2.0 3.0 0.00 1.04 1.04 90 1009.6
20260505183123 56 360 0.0 3.0 0.02 1.04 1.04 89 1009.5
20260505181512 56 360 5.0 7.0 0.06 1.04 1.04 89 1009.1
20260505180023 57 360 6.0 9.0 0.06 1.04 1.04 88 1009.0